#timestamp,LO_Frequency,Hit,StdDev 
1561147215.6,286046998.3,N
1561147235.4,286046999.4,N
1561147255.2,286046998.3,N
1561147275.1,286046999.1,N
1561147276.0,286046999.1,N
1561147295.8,286046999.0,N
1561147315.7,286046996.8,Y
1561147335.5,286046997.6,P
1561147355.3,286046997.2,N
1561147375.2,286046996.8,N
1561147395.0,286046995.4,Y
1561147395.9,286046995.4,P
1561147415.8,286046998.6,N
1561147435.6,286046999.2,N
1561147455.4,286046999.1,N
1561147475.3,286046996.8,N
1561147495.1,286046994.9,Y
1561147515.8,286046999.0,P
1561147535.7,286046998.3,N
1561147555.5,286046998.1,P
1561147575.4,286047000.0,N
1561147595.2,286046998.3,N
1561147615.0,286046998.1,N
1561147615.9,286046998.1,N
1561147635.8,286046998.1,N
1561147655.6,286047000.9,N
1561147675.5,286047000.4,N
1561147695.3,286047001.2,N
1561147715.1,286046998.4,N
1561147735.9,286046999.1,N
1561147755.7,286046998.7,N
1561147775.6,286047001.1,N
1561147795.4,286047001.2,N
1561147815.2,286046999.7,N
1561147835.1,286047002.8,N
1561147836.0,286047002.8,N
1561147855.8,286047002.7,N
1561147875.6,286047002.8,N
1561147895.5,286047000.0,N
1561147915.3,286047002.6,N
1561147935.2,286047001.4,N
1561147955.9,286047001.7,N
1561147975.7,286047002.2,N
1561147995.6,286047001.6,N
1561148015.4,286047002.8,N
1561148035.2,286047002.0,N
1561148055.1,286047002.0,N
1561148056.0,286047002.0,N
1561148075.8,286047001.4,N
1561148095.7,286047001.7,N
1561148115.5,286047001.4,N
1561148135.3,286047002.1,N
1561148155.2,286047002.8,N
1561148175.9,286047002.1,N
1561148195.7,286047001.9,N
1561148215.6,286047002.2,N
1561148235.4,286047001.8,N
1561148255.2,286047002.1,N
1561148275.1,286047002.0,N
1561148276.0,286047002.0,N
1561148295.8,286047003.8,Y
1561148315.7,286047002.3,P
1561148335.5,286047002.4,P
1561148355.3,286047002.3,P
1561148375.2,286047000.3,N
1561148395.0,286046999.9,N
1561148395.9,286046999.9,N
1561148415.8,286046999.8,N
1561148435.6,286047000.4,N
1561148455.4,286046999.8,N
1561148475.3,286047002.8,N
1561148495.1,286047001.9,N
1561148515.9,286047002.8,N
1561148535.7,286047002.5,N
1561148555.5,286047002.8,N
1561148575.4,286047002.3,N
1561148595.2,286047002.2,N
1561148615.0,286047002.2,N
1561148615.9,286047002.2,N
1561148635.8,286047002.4,N
1561148655.6,286046999.9,N
1561148675.5,286047001.0,N
1561148695.3,286047000.5,N
1561148715.1,286047000.4,N
1561148735.9,286047002.5,N
1561148755.7,286047001.8,N
1561148775.5,286047002.0,N
1561148795.4,286047002.2,N
1561148815.2,286047004.0,Y
1561148835.1,286047000.1,P
1561148836.0,286047000.1,N
1561148855.8,286047001.1,N
1561148875.6,286047000.4,N
1561148895.5,286047001.0,N
1561148915.3,286047001.1,N
1561148935.1,286047002.8,Y
1561148955.9,286047000.5,P
1561148975.7,286046998.4,P
1561148995.6,286047001.0,N
1561149015.4,286046998.9,N
1561149035.2,286047000.7,N
1561149055.1,286046998.1,N
1561149056.0,286046998.1,N
1561149075.8,286047000.9,N
1561149095.6,286047000.2,N
1561149115.5,286047001.6,N
1561149135.3,286046999.7,N
1561149155.2,286047002.7,N
1561149175.8,286047001.5,N
1561149195.7,286047002.8,N
1561149215.5,286047002.7,N
1561149235.5,286046999.7,N
1561149255.3,286047000.6,N
1561149275.2,286047000.7,N
1561149295.0,286046998.6,N
1561149295.9,286046998.6,N
1561149315.7,286047000.5,N
1561149335.6,286047000.0,N
1561149355.4,286047000.1,N
1561149375.3,286047000.3,N
1561149395.1,286047000.4,N
1561149415.8,286047000.1,N
1561149435.7,286047000.0,N
1561149455.5,286047002.8,N
1561149475.4,286046999.9,N
1561149495.2,286047000.7,N
1561149515.0,286047000.8,N
1561149515.9,286047000.8,N
1561149535.8,286047001.0,N
1561149555.6,286047000.4,N
1561149575.4,286047000.8,N
1561149595.3,286047001.2,N
1561149615.1,286047001.0,N
1561149635.9,286046998.6,N
1561149655.7,286047000.8,N
1561149675.5,286046998.3,N
1561149695.4,286046998.8,N
1561149715.2,286047000.9,N
1561149735.0,286047001.0,N
1561149735.9,286047001.0,N
1561149755.8,286047000.3,N
1561149775.6,286046998.4,N
1561149795.5,286047000.0,N
1561149815.3,286047001.0,N
1561149835.1,286047001.0,N
1561149855.9,286047000.6,N
1561149875.7,286047000.6,N
1561149895.5,286046999.9,N
1561149915.4,286046999.8,N
1561149935.2,286047000.5,N
1561149955.1,286047000.5,N
1561149956.0,286047000.5,N
1561149975.8,286047000.9,N
1561149995.6,286047000.7,N
1561150015.5,286047000.7,N
1561150035.3,286047000.3,N
1561150055.1,286046998.3,N
1561150075.9,286047000.9,N
1561150095.7,286046999.9,N
1561150115.6,286047000.8,N
1561150135.4,286046999.9,N
1561150155.2,286046999.7,N
1561150175.1,286047002.3,N
1561150176.0,286047002.3,N
1561150195.8,286047002.1,N
1561150215.7,286047002.4,N
1561150235.5,286047000.4,N
1561150255.3,286047000.6,N
1561150275.2,286047000.6,N
1561150295.9,286047001.0,N
1561150315.7,286047001.2,N
1561150335.6,286046998.1,N
1561150355.4,286046998.6,N
1561150375.3,286046999.5,N
1561150395.1,286046998.6,N
1561150396.0,286046998.6,N
1561150415.8,286046999.1,N
1561150435.7,286046999.2,N
1561150455.5,286046999.4,N
1561150475.3,286046996.5,Y
1561150495.2,286046996.9,P
1561150515.0,286046997.5,N
1561150515.9,286046997.5,N
1561150535.8,286046996.6,N
1561150555.6,286046997.1,N
1561150575.4,286046996.6,N
1561150595.3,286046997.3,N
1561150615.1,286046996.9,N
1561150635.8,286046997.5,N
1561150655.7,286046996.8,Y
1561150675.5,286046998.6,P
1561150695.4,286046999.6,N
1561150715.2,286046999.4,N
1561150735.0,286046999.2,N
1561150735.9,286046999.2,N
1561150755.8,286046996.9,Y
1561150775.6,286047001.1,P
1561150795.5,286046999.8,N
